Regional Weather Roundup
Issued by NWS

Current Version | Previous Version | Text Only | Print | Product List | Glossary Off
Versions: 1 2 3 4 5 6 7 8 9 10 11 12 13 14 15 16 17 18 19 20 21 22 23 24 25 26 27 28 29 30 31 32 33 34 35 36 37 38 39 40 41 42 43 44 45 46 47 48 49 50

000
ASUS42 KFFC 292310
RWRGA
WEATHER ROUNDUP FOR GEORGIA
NATIONAL WEATHER SERVICE PEACHTREE CITY GA
700 PM EDT SAT AUG 29 2015

NOTE: "FAIR" INDICATES FEW OR NO CLOUDS BELOW 12,000 FEET WITH NO
SIGNIFICANT WEATHER AND/OR OBSTRUCTIONS TO VISIBILITY.

* = USE WITH CAUTION. THE STATIONS MARKED WITH AN ASTERISK MAY NOT
REPORT WEATHER SUCH AS PRECIPITATION, FOG, OR THUNDER AND ARE NOT
QUALITY CONTROLLED BY NWS.

THE REMARK "TC" DENOTES TEMPERATURE READING IN DEGREES CELSIUS.

GAZ001>058-300000-
NORTH GEORGIA

CITY           SKY/WX    TMP DP  RH WIND       PRES   REMARKS
ATLANTA        CLOUDY    78  64  61 SE6       30.12F
ATHENS         CLOUDY    78  64  61 E3        30.13F
CHAMBLEE       CLOUDY    78  65  63 SE5       30.13S
PEACHTREE CITY CLOUDY    76  73  91 CALM      30.12F FOG
ROME           CLOUDY    79  69  71 S6        30.10S
WEST ATLANTA   CLOUDY    80  65  59 SE6       30.12S
GAINESVILLE    CLOUDY    77  64  64 E5        30.17F
CARTERSVILLE   CLOUDY    79  65  62 S6        30.12S


CITY           SKY/WX    TMP DP  RH WIND       PRES   REMARKS
DALTON*        CLOUDY    79  68  69 SE3       30.12S
LAWRENCEVILLE* SUNNY     79  61  53 NE6       30.14F
MARIETTA       CLOUDY    80  64  58 SE12      30.12F
KENNESAW*      PTSUNNY   79  61  53 SE12      30.14S
BLAIRSVILLE*     N/A     74  39  28 SE3       30.18S
$$

GAZ059>098-102>109-300000-
CENTRAL GEORGIA

CITY           SKY/WX    TMP DP  RH WIND       PRES   REMARKS
AUGUSTA-BUSH   CLOUDY    80  66  62 E3        30.10R
AUGUSTA-DANIEL CLOUDY    83  58  42 E5        30.12S
COLUMBUS       CLOUDY    72  70  93 VRB5      30.08F
MACON          CLOUDY    79  71  76 NE8       30.08F
ROBINS AFB     CLOUDY    79  73  80 NE5       30.08F


CITY           SKY/WX    TMP DP  RH WIND       PRES   REMARKS
LAGRANGE*      CLOUDY    78  76  96 CALM      30.11S
SYLVANIA*      CLOUDY    79  71  75 E5        30.11S
MILLEDGEVILLE* CLOUDY    77  66  69 CALM      30.11S
$$

GAZ099>101-110>166-300000-
SOUTH GEORGIA

CITY           SKY/WX    TMP DP  RH WIND       PRES   REMARKS
SAVANNAH       PTSUNNY   80  69  69 E8        30.10R
VALDOSTA       CLOUDY    76  72  87 E5        30.07R
ALMA           RAIN      75  74  96 CALM      30.09S FOG
ST SIMONS      CLOUDY    80  73  79 E13       30.07S
FT STEWART     PTSUNNY   80  72  78 CALM      30.07S
ALBANY         CLOUDY    80  71  74 E7        30.07S
HUNTER AFB     PTSUNNY   79  74  85 NE6       30.07S
MOODY AFB      CLOUDY    74  71  89 E6        30.06S
BRUNSWICK      CLOUDY    81  73  78 NE13      30.08S


CITY           SKY/WX    TMP DP  RH WIND       PRES   REMARKS
BAINBRIDGE*    CLOUDY    77  72  83 N3        30.03S
MOULTRIE*      CLOUDY    75  72  88 E5        30.06S
VIDALIA*       LGT RAIN  77  73  88 CALM      30.11R
WAYCROSS*      TSTM      77  77  99 N3        30.10R
DOUGLAS*       CLOUDY    77  73  88 NE8       30.09S
$$


USA.gov is the U.S. government's official web portal to all federal, state and local government web resources and services.